Regional Weather Roundup
Issued by NWS

Home | Current Version | Previous Version | Text Only | Print | Product List | Glossary On
Versions: 1 2 3 4 5 6 7 8 9 10 11 12 13 14 15 16 17 18 19 20 21 22 23 24 25 26 27 28 29 30 31 32 33 34 35 36 37 38 39 40 41 42 43 44 45 46 47 48 49 50
000
ASCA44 KEWX 051020
RWRMX

LATIN AMERICA AND CARIBBEAN REGIONAL WEATHER ROUNDUP
NATIONAL WEATHER SERVICE AUSTIN/SAN ANTONIO TX
400 AM CST MON DEC 05 2016

NOTE: "FAIR" INDICATED FEW OR NO CLOUDS BELOW 12,000 FEET WITH NO
SIGNIFICANT WEATHER AND/OR OBSTRUCTIONS TO VISIBILITY.

BAJA CALIFORNIA

CITY           SKY/WX    TMP DP  RH WIND       PRES   REMARKS
S.J. DEL CABO    N/A    N/A N/A N/A MISG        N/A
TIJUANA        PTCLDY    50  34  53 N5        29.99F WCI  48

NORTHWESTERN MEXICO

CITY           SKY/WX    TMP DP  RH WIND       PRES   REMARKS
HERMOSILLO     CLEAR     52  41  66 CALM      29.98S

NORTHEASTERN MEXICO

CITY           SKY/WX    TMP DP  RH WIND       PRES   REMARKS
MONCLOVA         N/A    N/A N/A N/A MISG        N/A
MONTERREY      CLOUDY    50  46  87 NW7       29.93F WCI  47
REYNOSA          N/A    N/A N/A N/A MISG        N/A
CD. VICTORIA     N/A    N/A N/A N/A MISG        N/A

WESTERN MEXICO

CITY           SKY/WX    TMP DP  RH WIND       PRES   REMARKS
AGUASCALIENTES   N/A    N/A N/A N/A MISG        N/A
COLIMA           N/A    N/A N/A N/A MISG        N/A
DEL BAJIO        N/A    N/A N/A N/A MISG        N/A
GUADALAJARA    PTCLDY    52  45  76 CALM      30.05S
MAZATLAN       CLEAR     50  48  93 CALM      29.96F
P. VALLARTA    MOCLDY    63  63 100 NE5       29.93F
URUAPAN          N/A    N/A N/A N/A MISG        N/A
ZACATECAS        N/A    N/A N/A N/A MISG        N/A

CENTRAL MEXICO

CITY           SKY/WX    TMP DP  RH WIND       PRES   REMARKS
CUERNAVACA       N/A    N/A N/A N/A MISG        N/A
MEXICO CITY    PTCLDY    57  39  51 SE12      30.19R
MORELIA          N/A    N/A N/A N/A MISG        N/A
POZA RICA        N/A    N/A N/A N/A MISG        N/A
QUERETARO      PTCLDY    54  46  76 W9        30.13F
S. LUIS POTOSI MOCLDY    57  34  41 SW14      30.01S
TOLUCA         PTCLDY    39  37  93 NW3       30.25S

SOUTHERN MEXICO

CITY           SKY/WX    TMP DP  RH WIND       PRES   REMARKS
ACAPULCO       MOCLDY    75  73  94 CALM      29.84R
B. DE HUATULCO   N/A    N/A N/A N/A MISG        N/A
P. ESCONDIDO     N/A    N/A N/A N/A MISG        N/A
VERACRUZ         N/A    N/A N/A N/A MISG        N/A

YUCATAN PENINSULA

CITY           SKY/WX    TMP DP  RH WIND       PRES   REMARKS
CAMPECHE         N/A    N/A N/A N/A MISG        N/A
CANCUN         PTCLDY    81  77  89 SE12      29.85R
CHETUMAL         N/A    N/A N/A N/A MISG        N/A
CD. DEL CARMEN   N/A    N/A N/A N/A MISG        N/A
COZUMEL        PTCLDY    81  77  89 SE6       29.83
MERIDA         CLOUDY    75  73  94 SE12      29.81S
MINATITLAN       N/A    N/A N/A N/A MISG        N/A
TAPACHULA      PTCLDY    72  70  94 CALM      29.83F

CENTRAL AMERICA

CITY           SKY/WX    TMP DP  RH WIND       PRES   REMARKS

CARIBBEAN

CITY           SKY/WX    TMP DP  RH WIND       PRES   REMARKS
CURACAO        PTCLDY    81  73  78 E13       29.92R
KINGSTON       PTCLDY    81  72  74 N14       29.89S
NASSAU         PTCLDY    73  68  83 VRB1      30.04R
SAN JUAN       PTCLDY    77  73  88 CALM      29.98R
SANTO DOMINGO  PTCLDY    73  72  94 N6        29.94S
ST. CROIX      CLEAR     73  70  88 NE5       29.98R
ST. KITTS      PTCLDY    79  68  69 N7        29.97
ST. MAARTEN    PTCLDY    75  68  78 NE3       29.97R
ST. THOMAS     PTCLDY    75  73  94 E5        29.96R

$$




USA.gov is the U.S. government's official web portal to all federal, state and local government web resources and services.